Other Surface Observations
Issued by NWS

Home | Current Version | Previous Version | Text Only | Print | Product List | Glossary On
Versions: 1 2 3 4 5 6 7 8 9 10 11 12 13 14 15 16 17 18 19 20 21 22 23 24 25 26 27 28 29 30 31 32 33 34 35 36 37 38 39 40 41 42 43 44 45 46 47 48 49 50
153
SXUS52 KTAE 232118
OSOTAE
OSOTAE
North Florida/South Alabama/Southwest Georgia Weather Roundup
National Weather Service Tallahassee Florida
400 PM EST FRI FEB 23 2018

Note: "fair" indicates few or no clouds below 12,000 feet with no
significant weather and/or obstructions to visibility.

!FLZ017-115-028-034-025-232200
...North Florida...

CITY           SKY/WX    TMP DP  RH WIND       PRES   REMARKS
TALLAHASSEE    FAIR      82  60  47 SW9       30.27F
APALACHICOLA   FAIR      76  69  79 SE7       30.29F
PERRY            N/A     83  60  45 SW9       30.28F
CROSS CITY     FAIR      83  62  48 SW9       30.31F
JACKSONVILLE   FAIR      78  63  59 SE15      30.30F
$$

!FLZ112-006-005-002-011-232200
...Florida Panhandle...

CITY           SKY/WX    TMP DP  RH WIND       PRES   REMARKS
MARIANNA       FAIR      84  61  45 E7        30.24F
BONIFAY        NOT AVBL
PANAMA CITY NW FAIR      79  63  57 S14       30.26F
TYNDALL AFB    MOSUNNY   77  65  65 S13       30.27F
TYND DRONE APT FAIR      77  65  65 S14       30.27F
DE FUNIAK SPR  FAIR      79  64  59 S8        30.28F
EGLIN AFB      PTSUNNY   74  68  82 SE8       30.26F
DESTIN         CLOUDY    75  68  78 SE10      30.27F
HURLBURT       CLOUDY    74  69  83 SE8       30.26F
CRESTVIEW      PTSUNNY   80  66  62 S8        30.28F
PENSACOLA      CLOUDY    76  70  82 SE14      30.26F
$$

!ALZ063-066-232200
...South Alabama...

CITY           SKY/WX    TMP DP  RH WIND       PRES   REMARKS
DOTHAN         FAIR      82  59  45 SE5       30.29F
OZARK CAIRNS   FAIR      81  63  54 S7        30.25S
FT RUCKER HELI FAIR      82  63  52 S7        30.25F
RUCKER HELI 3    N/A    N/A N/A N/A MISG        N/A
RUCKER HELI 2  PTSUNNY   81  63  53 CALM      30.24F
FLORALA APT    FAIR      81  63  54 S15       30.27F
ANDALUSIA      FAIR      85  63  47 S10       30.23F
TROY           PTSUNNY   80  62  54 S5        30.25F
EUFALA         FAIR      85  59  41 SE7       30.25F
MOBILE         PTSUNNY   79  66  64 SE14      30.23F
$$

!GAZ120>161-232200
...Southwest and South Central Georgia...

CITY           SKY/WX    TMP DP  RH WIND       PRES   REMARKS
THOMASVILLE    FAIR      82  57  42 SE5       30.29F
BAINBRIDGE     FAIR      86  66  51 E5        30.27F
MOODY AFB      LGT RAIN  81  57  44 S3        30.27F
VALDOSTA       FAIR      81  58  45 E5        30.28F
MOULTRIE       FAIR      81  59  47 E3        30.29F
BLAKELY        FAIR      86  59  39 S5        30.27F
ALBANY         FAIR      83  60  45 SE8       30.30F
TIFTON         FAIR      79  59  50 W3        30.29F
FITZGERALD     FAIR      79  62  54 S5        30.32F
CORDELE        FAIR      85  56  37 SE6       30.31F
AMERICUS       FAIR      81  48  32 S3        30.30F
HOMERVILLE     FAIR      81  57  44 SE5       30.29F
$$

!GMZ750-755-770-775-232200
...Coastal and Buoy Obs...

STATION/POSITION TIME  TEMP    WIND        PRES    VSBY  WAVE
                       AIR SEA DIR/SP/G                  HT/PER
                 (UTC) (F)     (DEG/KT/KT) (MB)    (MI)  (FT/S)
KEATON BEACH     2100   74     220/  7/  8 1025.7F
CEDAR KEY        2100   76     290/  6/  8 1025.1F
C TOWER          2100   67      80/  8/  8 1026.1F
APALACHICOLA BUO NOT AVBL
PANAMA CITY BUOY 2050   74 76  120/ 12/ 16 1024.2F         4/ 5
MOBILE BUOY      2100      77  120/ 16/ 19 1023.3
ORANGE BCH AL BU NOT AVBL
$$




USA.gov is the U.S. government's official web portal to all federal, state and local government web resources and services.